FW6045 Weather Reports


Display with metric or nautical units.
time (UTC)temp
F
wind
direction
speed
MPH
gust
MPH
rain 1hr
in
rain 24hr
in
rain mn
in
humidity
%
barometer
mb
20260507180107 56 355 7.0 21.0 0.00 0.00 0.00 43 1014.0
20260507174633 55 307 8.0 18.0 0.00 0.00 0.00 42 1014.1
20260507173111 55 305 10.0 16.0 0.00 0.00 0.00 44 1014.4
20260507171649 56 337 6.0 15.0 0.00 0.00 0.00 45 1014.6
20260507170059 55 317 13.0 19.0 0.00 0.00 0.00 43 1014.9
20260507164558 54 342 9.0 17.0 0.00 0.00 0.00 45 1015.2
20260507163059 54 323 10.0 18.0 0.00 0.00 0.00 44 1015.2
20260507161558 54 322 11.0 17.0 0.00 0.00 0.00 44 1015.1
20260507160117 54 264 9.0 15.0 0.00 0.00 0.00 44 1015.2
20260507154559 53 49 7.0 19.0 0.00 0.00 0.00 45 1015.2
20260507153056 53 321 10.0 16.0 0.00 0.00 0.00 43 1015.1
20260507151601 53 246 3.0 17.0 0.00 0.00 0.00 50 1015.0
20260507150057 53 331 5.0 11.0 0.00 0.00 0.00 48 1015.0
20260507144557 52 319 8.0 17.0 0.00 0.00 0.00 47 1015.0
20260507143116 51 338 8.0 16.0 0.00 0.00 0.00 47 1015.0
20260507141626 51 297 9.0 19.0 0.00 0.00 0.00 48 1015.0
20260507140111 50 360 9.0 17.0 0.00 0.00 0.00 50 1015.1
20260507134600 50 332 3.0 14.0 0.00 0.00 0.00 54 1015.0
20260507133105 50 294 6.0 12.0 0.00 0.00 0.00 53 1014.9
20260507131619 49 311 3.0 6.0 0.00 0.00 0.00 59 1015.0
20260507130106 48 309 3.0 6.0 0.00 0.00 0.00 61 1015.0
20260507124603 47 326 3.0 6.0 0.00 0.00 0.00 63 1014.9
20260507123105 47 337 4.0 8.0 0.00 0.00 0.00 64 1014.9
20260507121601 46 5 3.0 8.0 0.00 0.00 0.00 66 1015.1
20260507120055 45 355 5.0 9.0 0.00 0.00 0.00 68 1015.1
20260507114555 44 329 4.0 9.0 0.00 0.00 0.00 71 1015.1
20260507113133 43 352 5.0 9.0 0.00 0.00 0.00 73 1015.1
20260507111559 43 336 5.0 9.0 0.00 0.00 0.00 75 1014.9
20260507110058 42 342 5.0 11.0 0.00 0.00 0.00 76 1014.7
20260507104609 43 333 6.0 10.0 0.00 0.00 0.00 76 1014.4
20260507103055 43 355 6.0 11.0 0.00 0.00 0.00 75 1014.2
20260507101556 43 347 6.0 11.0 0.00 0.00 0.00 76 1014.3
20260507100101 44 324 7.0 11.0 0.00 0.00 0.00 76 1014.4
20260507094611 44 5 7.0 12.0 0.00 0.00 0.00 77 1014.3
20260507093059 44 348 7.0 12.0 0.00 0.00 0.00 79 1014.1
20260507091600 44 343 5.0 10.0 0.00 0.00 0.00 79 1014.2
20260507090057 44 337 5.0 9.0 0.00 0.00 0.00 79 1014.1
20260507084602 45 360 5.0 9.0 0.00 0.00 0.00 77 1014.2
20260507083057 45 339 5.0 9.0 0.00 0.00 0.00 76 1013.9
20260507081558 46 351 6.0 9.0 0.00 0.00 0.00 76 1013.9
20260507074600 46 355 6.0 9.0 0.00 0.01 0.00 75 1013.8
20260507073108 46 5 7.0 10.0 0.00 0.01 0.00 76 1013.8
20260507071556 46 5 6.0 10.0 0.00 0.01 0.00 76 1013.8
20260507070108 46 342 5.0 9.0 0.00 0.01 0.00 77 1013.8
20260507064602 46 346 4.0 8.0 0.00 0.11 0.00 77 1013.9
20260507063057 46 16 5.0 9.0 0.00 0.11 0.00 77 1013.9
20260507061600 47 340 4.0 8.0 0.00 0.11 0.00 77 1014.2
20260507060100 47 336 3.0 5.0 0.00 0.11 0.00 77 1014.1
20260507054600 47 336 4.0 8.0 0.00 0.36 0.00 76 1014.1
20260507053059 48 331 4.0 6.0 0.00 0.36 0.00 75 1014.2
20260507051607 48 334 4.0 6.0 0.00 0.36 0.00 75 1014.2
20260507050111 49 330 5.0 6.0 0.00 0.36 0.00 73 1014.1
20260507044559 50 329 4.0 5.0 0.00 0.45 0.00 72 1014.2
20260507043059 50 336 4.0 5.0 0.00 0.45 0.00 72 1014.2
20260507041558 50 339 3.0 5.0 0.00 0.45 0.00 72 1014.3
20260507040111 50 335 4.0 5.0 0.00 0.45 0.00 71 1014.2
20260507034604 51 342 3.0 6.0 0.00 0.48 0.45 70 1014.3
20260507033102 51 355 5.0 8.0 0.00 0.48 0.45 69 1014.2
20260507031559 51 355 4.0 8.0 0.00 0.48 0.45 69 1014.3
20260507030058 51 347 4.0 9.0 0.00 0.48 0.45 69 1014.3
20260507024559 52 343 4.0 10.0 0.00 0.55 0.45 68 1014.4
20260507023058 52 342 5.0 9.0 0.00 0.55 0.45 67 1014.1
20260507021611 53 355 4.0 6.0 0.00 0.55 0.45 65 1014.0
20260507020058 53 5 5.0 9.0 0.00 0.55 0.45 65 1013.9
20260507014600 54 348 4.0 8.0 0.00 0.58 0.45 65 1013.7
20260507013057 54 342 3.0 5.0 0.00 0.58 0.45 64 1013.6
20260507011559 54 329 3.0 5.0 0.00 0.58 0.45 63 1013.7
20260507010059 54 340 3.0 5.0 0.00 0.58 0.45 63 1013.4
20260507004558 55 344 2.0 5.0 0.00 0.58 0.45 63 1013.4
20260507003055 55 325 3.0 9.0 0.00 0.58 0.45 63 1013.3
20260507001605 55 325 4.0 8.0 0.00 0.58 0.45 63 1013.3
20260507000058 56 331 4.0 10.0 0.00 0.58 0.45 62 1013.2
20260506234624 57 320 6.0 10.0 0.00 0.61 0.45 60 1013.0
20260506233057 57 292 6.0 14.0 0.00 0.61 0.45 61 1012.9
20260506231556 57 288 8.0 14.0 0.00 0.61 0.45 62 1012.8
20260506230058 57 313 6.0 14.0 0.00 0.61 0.45 62 1012.6
20260506224556 56 327 5.0 14.0 0.00 0.63 0.45 60 1012.3
20260506223101 57 17 6.0 13.0 0.00 0.63 0.45 58 1012.5
20260506221558 57 338 6.0 15.0 0.00 0.63 0.45 57 1012.5
20260506214557 58 317 7.0 11.0 0.00 0.66 0.45 58 1012.7
20260506213058 58 327 7.0 12.0 0.00 0.66 0.45 59 1012.7
20260506211559 58 340 8.0 12.0 0.00 0.66 0.45 57 1012.5
20260506210057 60 267 7.0 13.0 0.00 0.66 0.45 56 1012.4
20260506204600 58 325 10.0 18.0 0.00 0.82 0.45 58 1012.3
20260506203058 59 332 5.0 11.0 0.00 0.82 0.45 56 1012.1
20260506201600 59 321 7.0 12.0 0.00 0.82 0.45 57 1012.4
20260506200112 59 267 5.0 10.0 0.00 0.82 0.45 57 1012.4
20260506194619 58 282 3.0 9.0 0.00 0.92 0.45 57 1012.4
20260506193058 58 322 4.0 11.0 0.00 0.92 0.45 59 1012.5
20260506191556 58 5 6.0 11.0 0.00 0.92 0.45 57 1012.5
20260506190100 58 312 7.0 14.0 0.00 0.92 0.45 56 1012.0
20260506184610 58 342 3.0 15.0 0.00 1.12 0.45 61 1012.1
20260506183105 57 5 7.0 19.0 0.00 1.12 0.45 59 1012.2
20260506181601 57 5 12.0 16.0 0.00 1.12 0.45 63 1012.1